Time,TemperatureF,DewpointF,PressureIn,WindDirection,WindDirectionDegrees,WindSpeedMPH,WindSpeedGustMPH,Humidity,HourlyPrecipIn,Conditions,Clouds,dailyrainin,SoftwareType,DateUTC
2013-02-11 00:02:00,46.0,45.0,30.13,North,5,0.0,2.0,96,0.06,,,0.42,,2013-02-11 05:02:00,
2013-02-11 00:12:00,46.0,45.0,30.14,North,5,0.0,0.0,96,0.06,,,0.43,,2013-02-11 05:12:00,
2013-02-11 00:22:00,46.0,45.0,30.14,North,5,0.0,0.0,96,0.06,,,0.43,,2013-02-11 05:22:00,
2013-02-11 00:32:00,46.0,45.0,30.14,North,5,0.0,0.0,96,0.06,,,0.43,,2013-02-11 05:32:00,
2013-02-11 00:42:00,46.0,45.0,30.14,North,5,0.0,0.0,96,0.06,,,0.43,,2013-02-11 05:42:00,
2013-02-11 00:52:00,46.0,45.0,30.13,North,5,0.0,0.0,96,0.03,,,0.43,,2013-02-11 05:52:00,
2013-02-11 01:02:00,46.0,45.0,30.12,North,5,0.0,0.0,96,0.02,,,0.44,,2013-02-11 06:02:00,
2013-02-11 01:12:00,46.0,45.0,30.12,North,5,0.0,0.0,96,0.02,,,0.44,,2013-02-11 06:12:00,
2013-02-11 01:22:00,46.0,45.0,30.11,North,5,0.0,0.0,96,0.01,,,0.44,,2013-02-11 06:22:00,
2013-02-11 01:32:00,46.0,45.0,30.11,North,5,0.0,0.0,96,0.01,,,0.44,,2013-02-11 06:32:00,
2013-02-11 01:42:00,46.0,45.0,30.11,North,5,0.0,1.0,96,0.01,,,0.44,,2013-02-11 06:42:00,
2013-02-11 01:52:00,46.0,45.0,30.11,North,5,0.0,1.0,96,0.01,,,0.44,,2013-02-11 06:52:00,
2013-02-11 02:02:00,46.0,45.0,30.09,North,5,0.0,0.0,96,0.00,,,0.44,,2013-02-11 07:02:00,
2013-02-11 02:12:00,46.0,45.0,30.09,North,5,0.0,0.0,96,0.00,,,0.44,,2013-02-11 07:12:00,
2013-02-11 02:22:00,46.0,45.0,30.09,North,5,0.0,0.0,96,0.00,,,0.44,,2013-02-11 07:22:00,
2013-02-11 02:32:00,46.0,45.0,30.09,North,5,0.0,2.0,96,0.00,,,0.44,,2013-02-11 07:32:00,
2013-02-11 02:42:00,46.0,45.0,30.10,North,5,1.0,2.0,97,0.00,,,0.44,,2013-02-11 07:42:00,
2013-02-11 02:52:00,46.0,45.0,30.10,North,5,1.0,2.0,97,0.00,,,0.44,,2013-02-11 07:52:00,
2013-02-11 03:01:00,46.0,45.0,30.09,North,5,0.0,1.0,97,0.00,,,0.44,,2013-02-11 08:01:00,
2013-02-11 03:11:00,46.0,45.0,30.09,North,5,0.0,1.0,97,0.00,,,0.44,,2013-02-11 08:11:00,
2013-02-11 03:21:00,46.0,45.0,30.07,North,5,0.0,0.0,97,0.00,,,0.44,,2013-02-11 08:21:00,
2013-02-11 03:32:00,46.0,45.0,30.05,North,5,0.0,0.0,97,0.01,,,0.45,,2013-02-11 08:32:00,
2013-02-11 03:42:00,46.0,45.0,30.04,North,5,0.0,0.0,97,0.01,,,0.45,,2013-02-11 08:42:00,
2013-02-11 03:52:00,46.0,45.0,30.04,North,5,0.0,0.0,97,0.01,,,0.45,,2013-02-11 08:52:00,
2013-02-11 04:02:00,47.0,46.0,30.04,North,5,0.0,0.0,97,0.01,,,0.45,,2013-02-11 09:02:00,
2013-02-11 04:12:00,47.0,46.0,30.04,North,5,0.0,0.0,97,0.01,,,0.45,,2013-02-11 09:12:00,
2013-02-11 04:22:00,47.0,46.0,30.05,North,5,0.0,0.0,97,0.01,,,0.45,,2013-02-11 09:22:00,
2013-02-11 04:32:00,47.0,46.0,30.04,North,5,0.0,0.0,97,0.01,,,0.46,,2013-02-11 09:32:00,
2013-02-11 04:42:00,47.0,46.0,30.04,North,5,0.0,0.0,97,0.01,,,0.46,,2013-02-11 09:42:00,
2013-02-11 04:51:00,47.0,46.0,30.03,North,5,0.0,1.0,97,0.01,,,0.46,,2013-02-11 09:51:00,
2013-02-11 05:02:00,47.0,46.0,30.04,North,5,0.0,2.0,97,0.01,,,0.46,,2013-02-11 10:02:00,
2013-02-11 05:11:00,47.0,46.0,30.04,North,5,0.0,2.0,97,0.01,,,0.46,,2013-02-11 10:11:00,
2013-02-11 05:21:00,47.0,46.0,30.04,North,5,0.0,0.0,97,0.01,,,0.46,,2013-02-11 10:21:00,
2013-02-11 05:32:00,47.0,46.0,30.04,North,5,0.0,0.0,97,0.02,,,0.48,,2013-02-11 10:32:00,
2013-02-11 05:42:00,47.0,46.0,30.04,North,5,0.0,0.0,97,0.02,,,0.48,,2013-02-11 10:42:00,
2013-02-11 05:52:00,47.0,46.0,30.05,North,5,0.0,0.0,97,0.04,,,0.50,,2013-02-11 10:52:00,
2013-02-11 06:02:00,47.0,46.0,30.04,North,5,0.0,3.0,97,0.05,,,0.51,,2013-02-11 11:02:00,
2013-02-11 06:11:00,47.0,46.0,30.04,North,5,0.0,3.0,97,0.05,,,0.51,,2013-02-11 11:11:00,
2013-02-11 06:22:00,48.0,47.0,30.04,North,5,0.0,1.0,98,0.05,,,0.52,,2013-02-11 11:22:00,
2013-02-11 06:32:00,48.0,47.0,30.04,North,5,0.0,0.0,98,0.05,,,0.53,,2013-02-11 11:32:00,
2013-02-11 06:42:00,48.0,47.0,30.04,North,5,0.0,0.0,98,0.05,,,0.53,,2013-02-11 11:42:00,
2013-02-11 06:52:00,48.0,47.0,30.04,North,5,0.0,0.0,98,0.05,,,0.55,,2013-02-11 11:52:00,
2013-02-11 07:03:00,48.0,47.0,30.03,North,5,0.0,0.0,98,0.04,,,0.55,,2013-02-11 12:03:00,
2013-02-11 07:12:00,48.0,47.0,30.03,North,5,0.0,0.0,98,0.04,,,0.55,,2013-02-11 12:12:00,
2013-02-11 07:22:00,48.0,47.0,30.03,North,5,0.0,0.0,98,0.04,,,0.56,,2013-02-11 12:22:00,
2013-02-11 07:32:00,48.0,47.0,30.01,North,5,0.0,0.0,98,0.02,,,0.56,,2013-02-11 12:32:00,
2013-02-11 07:42:00,48.0,47.0,30.01,North,5,0.0,1.0,98,0.02,,,0.56,,2013-02-11 12:42:00,
2013-02-11 07:52:00,48.0,47.0,30.01,North,5,0.0,1.0,98,0.02,,,0.56,,2013-02-11 12:52:00,
2013-02-11 08:02:00,48.0,47.0,30.03,North,5,0.0,0.0,98,0.01,,,0.56,,2013-02-11 13:02:00,
2013-02-11 08:12:00,48.0,47.0,30.04,North,5,0.0,0.0,98,0.01,,,0.56,,2013-02-11 13:12:00,
2013-02-11 08:22:00,48.0,47.0,30.04,North,5,0.0,0.0,98,0.01,,,0.56,,2013-02-11 13:22:00,
2013-02-11 08:33:00,48.0,47.0,30.04,North,5,0.0,0.0,98,0.02,,,0.57,,2013-02-11 13:33:00,
2013-02-11 08:42:00,48.0,47.0,30.04,North,5,0.0,0.0,98,0.02,,,0.57,,2013-02-11 13:42:00,
2013-02-11 08:52:00,48.0,47.0,30.05,North,5,0.0,0.0,98,0.01,,,0.57,,2013-02-11 13:52:00,
2013-02-11 09:02:00,49.0,48.0,30.03,North,5,0.0,0.0,98,0.02,,,0.59,,2013-02-11 14:02:00,
2013-02-11 09:12:00,49.0,48.0,30.03,North,5,0.0,0.0,98,0.02,,,0.59,,2013-02-11 14:12:00,
2013-02-11 09:22:00,49.0,48.0,30.03,North,5,0.0,3.0,98,0.02,,,0.59,,2013-02-11 14:22:00,
2013-02-11 09:33:00,50.0,49.0,30.03,North,5,0.0,2.0,98,0.01,,,0.59,,2013-02-11 14:33:00,
2013-02-11 09:42:00,50.0,49.0,30.03,North,5,0.0,2.0,98,0.01,,,0.59,,2013-02-11 14:42:00,
2013-02-11 09:52:00,50.0,49.0,30.03,North,5,0.0,2.0,98,0.01,,,0.60,,2013-02-11 14:52:00,
2013-02-11 10:02:00,50.0,49.0,30.02,North,5,0.0,2.0,98,0.02,,,0.61,,2013-02-11 15:02:00,
2013-02-11 10:11:00,50.0,49.0,30.02,North,5,0.0,2.0,98,0.02,,,0.61,,2013-02-11 15:11:00,
2013-02-11 10:22:00,51.0,50.0,30.01,North,5,0.0,2.0,98,0.02,,,0.61,,2013-02-11 15:22:00,
2013-02-11 10:32:00,51.0,50.0,30.00,North,5,1.0,4.0,98,0.02,,,0.61,,2013-02-11 15:32:00,
2013-02-11 10:42:00,52.0,51.0,30.00,North,5,0.0,4.0,98,0.01,,,0.61,,2013-02-11 15:42:00,
2013-02-11 10:52:00,52.0,51.0,30.00,North,5,0.0,4.0,98,0.01,,,0.61,,2013-02-11 15:52:00,
2013-02-11 11:02:00,52.0,51.0,30.02,North,5,1.0,4.0,98,0.00,,,0.61,,2013-02-11 16:02:00,
2013-02-11 11:12:00,52.0,51.0,30.02,North,5,1.0,4.0,98,0.00,,,0.61,,2013-02-11 16:12:00,
2013-02-11 11:22:00,52.0,51.0,30.02,North,5,1.0,4.0,98,0.00,,,0.61,,2013-02-11 16:22:00,
2013-02-11 11:32:00,52.0,51.0,30.03,North,5,0.0,5.0,98,0.00,,,0.61,,2013-02-11 16:32:00,
2013-02-11 11:42:00,52.0,51.0,30.02,North,5,1.0,5.0,98,0.00,,,0.61,,2013-02-11 16:42:00,
2013-02-11 11:52:00,52.0,51.0,30.02,North,5,1.0,5.0,98,0.00,,,0.61,,2013-02-11 16:52:00,
2013-02-11 12:02:00,52.0,51.0,30.03,North,5,1.0,4.0,98,0.01,,,0.62,,2013-02-11 17:02:00,
2013-02-11 12:12:00,52.0,51.0,30.03,North,5,1.0,4.0,98,0.01,,,0.62,,2013-02-11 17:12:00,
2013-02-11 12:22:00,52.0,51.0,30.02,North,5,1.0,5.0,98,0.02,,,0.63,,2013-02-11 17:22:00,
2013-02-11 12:32:00,53.0,52.0,30.01,North,5,0.0,4.0,98,0.03,,,0.64,,2013-02-11 17:32:00,
2013-02-11 12:42:00,53.0,52.0,30.01,North,5,0.0,4.0,98,0.03,,,0.64,,2013-02-11 17:42:00,
2013-02-11 12:52:00,53.0,52.0,29.99,North,5,0.0,4.0,98,0.05,,,0.66,,2013-02-11 17:52:00,
2013-02-11 13:02:00,53.0,52.0,30.00,North,5,1.0,4.0,98,0.04,,,0.66,,2013-02-11 18:02:00,
2013-02-11 13:11:00,53.0,52.0,30.00,North,5,1.0,4.0,98,0.04,,,0.66,,2013-02-11 18:11:00,
2013-02-11 13:22:00,54.0,53.0,30.00,North,5,5.0,10.0,98,0.03,,,0.66,,2013-02-11 18:22:00,
2013-02-11 13:32:00,54.0,53.0,30.00,North,5,5.0,10.0,98,0.03,,,0.66,,2013-02-11 18:32:00,
2013-02-11 13:42:00,54.0,53.0,30.00,North,5,5.0,10.0,98,0.03,,,0.66,,2013-02-11 18:42:00,
2013-02-11 13:53:00,54.0,53.0,29.97,North,5,3.0,11.0,98,0.00,,,0.66,,2013-02-11 18:53:00,
2013-02-11 14:02:00,54.0,53.0,29.98,North,5,5.0,14.0,98,0.00,,,0.66,,2013-02-11 19:02:00,
2013-02-11 14:12:00,54.0,53.0,29.98,North,5,5.0,14.0,98,0.00,,,0.66,,2013-02-11 19:12:00,
2013-02-11 14:22:00,55.0,54.0,29.99,North,5,3.0,11.0,98,0.00,,,0.66,,2013-02-11 19:22:00,
2013-02-11 14:32:00,55.0,54.0,29.97,North,5,1.0,10.0,98,0.00,,,0.66,,2013-02-11 19:32:00,
2013-02-11 14:42:00,55.0,54.0,29.97,North,5,1.0,10.0,98,0.00,,,0.66,,2013-02-11 19:42:00,
2013-02-11 14:51:00,55.0,54.0,29.96,North,5,2.0,12.0,98,0.00,,,0.66,,2013-02-11 19:51:00,
2013-02-11 15:02:00,55.0,54.0,29.96,North,5,1.0,4.0,98,0.00,,,0.66,,2013-02-11 20:02:00,
2013-02-11 15:11:00,55.0,54.0,29.96,North,5,2.0,9.0,98,0.00,,,0.66,,2013-02-11 20:11:00,
2013-02-11 15:22:00,55.0,54.0,29.96,North,5,2.0,9.0,98,0.00,,,0.66,,2013-02-11 20:22:00,
2013-02-11 15:32:00,56.0,55.0,29.95,North,5,1.0,8.0,97,0.00,,,0.66,,2013-02-11 20:32:00,
2013-02-11 15:42:00,56.0,55.0,29.96,North,5,0.0,3.0,97,0.00,,,0.66,,2013-02-11 20:42:00,
2013-02-11 15:52:00,56.0,55.0,29.96,North,5,0.0,3.0,97,0.00,,,0.66,,2013-02-11 20:52:00,
2013-02-11 16:02:00,56.0,55.0,29.97,North,5,2.0,10.0,96,0.00,,,0.66,,2013-02-11 21:02:00,
2013-02-11 16:12:00,56.0,55.0,29.96,North,5,1.0,8.0,95,0.00,,,0.66,,2013-02-11 21:12:00,
2013-02-11 16:22:00,56.0,55.0,29.96,North,5,1.0,8.0,95,0.00,,,0.66,,2013-02-11 21:22:00,
2013-02-11 16:32:00,56.0,55.0,29.94,North,5,2.0,9.0,95,0.00,,,0.66,,2013-02-11 21:32:00,
2013-02-11 16:42:00,56.0,55.0,29.94,North,5,2.0,9.0,95,0.00,,,0.66,,2013-02-11 21:42:00,
2013-02-11 16:52:00,56.0,54.0,29.93,North,5,0.0,3.0,94,0.00,,,0.66,,2013-02-11 21:52:00,
2013-02-11 17:02:00,56.0,54.0,29.95,North,5,0.0,3.0,94,0.00,,,0.66,,2013-02-11 22:02:00,
2013-02-11 17:12:00,56.0,54.0,29.95,North,5,0.0,3.0,94,0.00,,,0.66,,2013-02-11 22:12:00,
2013-02-11 17:22:00,56.0,54.0,29.96,North,5,3.0,7.0,94,0.00,,,0.66,,2013-02-11 22:22:00,
2013-02-11 17:32:00,56.0,54.0,29.97,North,5,0.0,3.0,93,0.00,,,0.66,,2013-02-11 22:32:00,
2013-02-11 17:42:00,56.0,54.0,29.97,North,5,0.0,3.0,93,0.00,,,0.66,,2013-02-11 22:42:00,
2013-02-11 17:52:00,55.0,53.0,29.96,North,5,1.0,5.0,93,0.00,,,0.66,,2013-02-11 22:52:00,
2013-02-11 18:02:00,55.0,53.0,29.95,North,5,1.0,5.0,93,0.00,,,0.66,,2013-02-11 23:02:00,
2013-02-11 18:12:00,55.0,53.0,29.95,North,5,1.0,5.0,93,0.00,,,0.66,,2013-02-11 23:12:00,
2013-02-11 18:22:00,55.0,53.0,29.97,North,5,1.0,6.0,93,0.00,,,0.66,,2013-02-11 23:22:00,
2013-02-11 18:32:00,55.0,53.0,29.97,North,5,2.0,8.0,93,0.00,,,0.66,,2013-02-11 23:32:00,
2013-02-11 18:42:00,55.0,53.0,29.97,North,5,2.0,8.0,93,0.00,,,0.66,,2013-02-11 23:42:00,
2013-02-11 18:52:00,54.0,52.0,29.97,North,5,3.0,8.0,94,0.00,,,0.66,,2013-02-11 23:52:00,
2013-02-11 19:02:00,54.0,52.0,29.97,North,5,2.0,6.0,94,0.00,,,0.66,,2013-02-12 00:02:00,
2013-02-11 19:12:00,54.0,52.0,29.97,North,5,2.0,6.0,94,0.00,,,0.66,,2013-02-12 00:12:00,
2013-02-11 19:22:00,54.0,52.0,29.98,North,5,1.0,6.0,94,0.00,,,0.66,,2013-02-12 00:22:00,
2013-02-11 19:32:00,54.0,52.0,29.98,North,5,1.0,6.0,94,0.00,,,0.57,,2013-02-12 00:32:00,
2013-02-11 19:42:00,54.0,52.0,29.98,North,5,1.0,6.0,94,0.00,,,0.57,,2013-02-12 00:42:00,
2013-02-11 19:52:00,53.0,51.0,29.99,North,5,1.0,4.0,94,0.00,,,0.57,,2013-02-12 00:52:00,
2013-02-11 20:02:00,53.0,51.0,29.99,North,5,0.0,7.0,94,0.00,,,0.57,,2013-02-12 01:02:00,
2013-02-11 20:12:00,53.0,51.0,29.99,North,5,0.0,7.0,94,0.00,,,0.57,,2013-02-12 01:12:00,
2013-02-11 20:22:00,53.0,51.0,29.98,North,5,0.0,5.0,94,0.00,,,0.57,,2013-02-12 01:22:00,
2013-02-11 20:32:00,52.0,50.0,29.98,North,5,2.0,8.0,94,0.00,,,0.45,,2013-02-12 01:32:00,
2013-02-11 20:42:00,52.0,50.0,29.98,North,5,2.0,8.0,94,0.00,,,0.45,,2013-02-12 01:42:00,
2013-02-11 20:52:00,52.0,51.0,29.98,North,5,2.0,9.0,95,0.00,,,0.45,,2013-02-12 01:52:00,
2013-02-11 21:02:00,52.0,51.0,29.99,North,5,0.0,4.0,95,0.00,,,0.45,,2013-02-12 02:02:00,
2013-02-11 21:12:00,52.0,51.0,29.99,North,5,0.0,4.0,95,0.00,,,0.45,,2013-02-12 02:12:00,
2013-02-11 21:22:00,51.0,49.0,29.99,North,5,0.0,3.0,94,0.00,,,0.45,,2013-02-12 02:22:00,
2013-02-11 21:32:00,51.0,49.0,29.99,North,5,0.0,3.0,94,0.00,,,0.35,,2013-02-12 02:32:00,
2013-02-11 21:42:00,51.0,49.0,29.99,North,5,0.0,3.0,94,0.00,,,0.35,,2013-02-12 02:42:00,
2013-02-11 21:52:00,50.0,48.0,29.98,North,5,0.0,0.0,94,0.00,,,0.35,,2013-02-12 02:52:00,
2013-02-11 22:02:00,49.0,47.0,30.00,North,5,0.0,0.0,94,0.00,,,0.35,,2013-02-12 03:02:00,
2013-02-11 22:11:00,49.0,47.0,30.00,North,5,0.0,0.0,94,0.00,,,0.35,,2013-02-12 03:11:00,
2013-02-11 22:21:00,49.0,47.0,29.99,North,5,0.0,0.0,94,0.00,,,0.35,,2013-02-12 03:21:00,
2013-02-11 22:32:00,49.0,47.0,29.97,North,5,0.0,0.0,94,0.00,,,0.32,,2013-02-12 03:32:00,
2013-02-11 22:42:00,49.0,47.0,29.97,North,5,0.0,0.0,94,0.00,,,0.32,,2013-02-12 03:42:00,
2013-02-11 22:51:00,48.0,47.0,29.96,North,5,0.0,0.0,95,0.00,,,0.32,,2013-02-12 03:51:00,
2013-02-11 23:01:00,48.0,47.0,29.97,North,5,0.0,0.0,95,0.00,,,0.32,,2013-02-12 04:01:00,
2013-02-11 23:11:00,48.0,47.0,29.97,North,5,0.0,0.0,95,0.00,,,0.32,,2013-02-12 04:11:00,
2013-02-11 23:21:00,48.0,47.0,29.97,North,5,0.0,0.0,95,0.00,,,0.32,,2013-02-12 04:21:00,
2013-02-11 23:32:00,47.0,46.0,29.96,North,5,0.0,0.0,95,0.00,,,0.28,,2013-02-12 04:32:00,
2013-02-11 23:42:00,47.0,46.0,29.96,North,5,0.0,0.0,95,0.00,,,0.28,,2013-02-12 04:42:00,
2013-02-11 23:51:00,47.0,46.0,29.97,North,5,0.0,0.0,96,0.00,,,0.28,,2013-02-12 04:51:00,